STARLINK-34068 (63914 NORAD) Tracking and Keplerian Element Data

This shows tracking and keplerian element data for the satellite.

Feedback or suggestion? Click here.




ElementValue
Catalog63914
NameSTARLINK-34068
Epoch Orbit3556
Epoch Day353.81356721
Epoch Year2025
RAAN267.1543
Inclination43.0013
Eccentricity0.0001179
Argument of Perigee258.6278
Mean Anonmoly101.4441
Mean Motion15.2763419
Decay Rate0.00020424
L11 63914U 25095AA 25353.81356721 .00020424 00000+0 74844-3 0 9996
L22 63914 43.0013 267.1543 0001179 258.6278 101.4441 15.27634190 35562



Live tracking and technical data element details for STARLINK-34068 (NORAD 63914). STARLINK-34068 can be tracked NOW for your location showing map with azimuth and elevation plus other details from your city location.







IsCatalogInMostPopularTable: catalog: 63914, numindb: 3
Update: records affected: 1



GetName: 63914 STARLINK-34068

Hit Count: updated at: Sat, 07 Feb 2026 08:10:51 GMT